#timestamp,LO_Frequency,Hit 
1503626415.4,286047002.4,N
1503626435.2,286046998.1,N
1503626455.0,286047000.4,N
1503626455.9,286047000.4,N
1503626475.8,286046998.1,N
1503626495.6,286047001.0,N
1503626515.4,286047002.8,N
1503626535.3,286046999.8,N
1503626555.1,286047002.8,N
1503626556.0,286047002.8,N
1503626575.8,286047000.5,N
1503626595.7,286047000.8,N
1503626615.5,286047002.5,N
1503626635.3,286047002.6,N
1503626655.2,286047001.7,N
1503626675.9,286047003.4,N
1503626695.7,286047001.4,N
1503626715.5,286047002.0,N
1503626735.4,286047003.5,N
1503626755.2,286047003.7,N
1503626775.0,286047003.6,N
1503626775.9,286047003.6,N
1503626795.8,286047003.1,N
1503626815.6,286047005.5,P
1503626835.4,286047003.8,N
1503626855.3,286047004.3,N
1503626875.1,286047004.1,P
1503626895.9,286046998.1,P
1503626915.7,286047000.7,N
1503626935.5,286046998.5,N
1503626955.3,286047001.2,N
1503626975.2,286046999.6,N
1503626995.9,286046996.9,N
1503627015.7,286046996.7,N
1503627035.6,286046996.6,N
1503627055.4,286046999.2,N
1503627075.2,286046999.3,N
1503627095.1,286046999.0,N
1503627096.0,286046999.0,N
1503627115.8,286046999.2,N
1503627135.6,286046996.5,N
1503627155.5,286046997.5,N
1503627175.3,286046997.7,N
1503627195.1,286046997.9,N
1503627215.8,286046995.0,N
1503627235.7,286046996.9,N
1503627255.5,286046999.2,N
1503627275.3,286046999.5,N
1503627295.2,286047000.9,N
1503627315.9,286047002.5,N
1503627335.7,286047001.6,N
1503627355.6,286047001.9,N
1503627375.4,286047002.0,N
1503627395.2,286047003.8,N
1503627415.1,286047005.3,N
1503627416.0,286047005.3,N
1503627435.8,286047005.0,N
1503627455.6,286047003.3,N
1503627475.4,286047001.3,N
1503627495.3,286047001.6,N
1503627515.1,286047004.0,N
1503627535.8,286047004.0,N
1503627555.7,286047001.5,N
1503627575.5,286047001.7,N
1503627595.3,286047003.4,N
1503627615.2,286047003.7,N
1503627635.9,286047008.5,P
1503627655.7,286047008.3,N
1503627675.6,286047009.2,N
1503627695.4,286047009.1,N
1503627715.2,286047007.9,N
1503627735.1,286047009.1,P
1503627736.0,286047009.1,P
1503627755.8,286047000.0,N
1503627775.6,286046998.4,N
1503627795.5,286046998.8,N
1503627815.3,286047001.2,N
1503627835.1,286046999.5,N
1503627855.9,286046997.2,N
1503627875.7,286046996.5,N
1503627895.5,286046998.9,N
1503627915.4,286047000.7,N
1503627935.2,286047000.0,N
1503627955.0,286047000.3,N
1503627955.9,286047000.3,N
1503627975.8,286047001.1,N
1503627995.6,286046998.3,N
1503628015.4,286047001.0,N
1503628035.2,286047002.7,N
1503628055.1,286046999.9,N
1503628056.0,286046999.9,N
1503628075.8,286047000.5,N
1503628095.6,286047000.3,N
1503628115.5,286047000.3,N
1503628135.3,286047001.2,N
1503628155.1,286046998.1,N
1503628175.9,286046999.4,N
1503628195.7,286047000.3,N
1503628215.5,286047001.2,N
1503628235.4,286046999.1,N
1503628255.2,286046999.0,N
1503628275.0,286047000.2,N
1503628275.9,286047000.2,N
1503628295.7,286047000.7,N
1503628315.6,286047002.4,N
1503628335.4,286046999.7,N
1503628355.2,286047000.0,N
1503628375.1,286047000.3,N
1503628376.0,286047000.3,N
1503628395.8,286046999.7,N
1503628415.6,286046999.7,N
1503628435.5,286047001.4,N
1503628455.3,286047001.4,N
1503628475.1,286047002.2,N
1503628495.9,286046999.8,N
1503628515.7,286047004.4,P
1503628535.5,286047001.2,N
1503628555.4,286047004.0,N
1503628575.2,286047002.6,N
1503628595.0,286047004.0,N
1503628595.9,286047004.0,N
1503628615.8,286047003.4,N
1503628635.6,286047005.5,P
1503628655.4,286047001.0,N
1503628675.3,286047000.0,N
1503628695.1,286046998.1,N
1503628696.0,286046998.1,N
1503628715.8,286046998.5,N
1503628735.7,286046999.5,N
1503628755.5,286046999.0,N
1503628775.3,286046998.4,N
1503628795.2,286046996.5,N
1503628815.9,286046998.5,N
1503628835.7,286047000.7,N
1503628855.5,286046998.9,N
1503628875.4,286047002.0,N
1503628895.2,286047000.1,N
1503628915.0,286046999.8,N
1503628915.9,286046999.8,N
1503628935.8,286047002.1,N
1503628955.6,286047004.4,N
1503628975.4,286047004.4,N
1503628995.3,286046999.7,N
1503629015.1,286046998.5,N
1503629016.0,286046998.5,N
1503629035.8,286047002.0,N
1503629055.7,286047000.1,N
1503629075.5,286046999.9,N
1503629095.3,286047003.0,N
1503629115.2,286047004.2,N
1503629135.9,286047004.3,N
1503629155.7,286047001.3,N
1503629175.5,286047003.7,N
1503629195.4,286047001.3,N
1503629215.2,286047001.6,N
1503629235.0,286047001.7,N
1503629235.9,286047001.7,N
1503629255.8,286047003.6,N
1503629275.6,286047003.5,N
1503629295.4,286047004.2,N
1503629315.3,286047002.3,N
1503629335.1,286047000.2,N
1503629355.8,286047004.0,N
1503629375.7,286047004.2,N
1503629395.5,286047004.0,N
1503629415.3,286047003.8,N
1503629435.2,286047004.3,N
1503629455.9,286047004.1,N
1503629475.7,286047003.2,N
1503629495.6,286047001.3,N
1503629515.4,286047004.2,N
1503629535.2,286047004.1,N
1503629555.1,286047005.6,P
1503629556.0,286047005.6,P
1503629575.8,286047001.3,N
1503629595.6,286047003.9,N
1503629615.5,286047003.3,N
1503629635.3,286047003.7,N
1503629655.1,286047002.9,N
1503629675.9,286047005.1,P
1503629695.7,286047004.3,P
1503629715.5,286047004.4,P
1503629735.4,286047001.0,N
1503629755.2,286047002.4,N
1503629775.0,286047000.0,N
1503629775.9,286047000.0,N
1503629795.7,286047000.2,N
1503629815.6,286047003.7,N
1503629835.4,286047004.3,N
1503629855.2,286047003.6,N
1503629875.1,286047001.5,N
1503629876.0,286047001.5,N
1503629895.8,286047002.7,N
1503629915.6,286047002.1,N
1503629935.5,286047001.8,N
1503629955.3,286047002.1,N
1503629975.1,286047002.4,N
1503629995.9,286047004.0,N
